Location: Bruderhein
(53.8035°N, 112.9265°W)
Time: 09:13:23
(UTC+00:00)

Envisat - Pass Details

Date: 26 May 2024
Orbit: 762 x 764 km, 98.3° (Epoch: 13 June)

Event Time Altitude Azimuth Distance (km) Brightness Sun altitude
Rises 09:37:57 0° 25° (NNE) 3,241 8.5 -10.0°
Reaches altitude 10° 09:40:57 10° 43° (NE) 2,309 7.0 -9.7°
Maximum altitude 09:44:31 19° 88° (E) 1,767 5.3 -9.5°
Drops below altitude 10° 09:48:03 10° 133° (SE) 2,296 5.4 -9.2°
Sets 09:51:01 0° 151° (SSE) 3,217 6.0 -8.9°
